Tracking 19246 objects as of 21-Sep-2018
HD Live streaming from Space Station
objects crossing your sky now

FENGYUN 1C DEB

Track FENGYUN 1C DEB now!
10-day predictions


NORAD ID: 31878
Int'l Code: 1999-025CKD
Perigee: 611.3 km
Apogee: 809.6 km
Inclination: 99.5 °
Period: 98.8 minutes
Semi major axis: 7081 km
RCS: 0.0122 m2 (small)
Launch date: May 10, 1999
Source: People's Republic of China (PRC)
Launch site: Taiyaun Space Center, China (TSC)

Note: This is SATELLITE DEBRIS
aabbcc
Your satellite tracking list
Your tracking list is empty




NASA's NSSDC Master Catalog

Two Line Element Set (TLE):
1 31878U 99025CKD 18259.40805938 +.00000234 +00000-0 +59390-4 0  9993
2 31878 099.4752 117.7517 0139999 308.0135 050.8487 14.56872126595478
Source of the keplerian elements: AFSPC